Location: York
(31.8935°S, 116.7682°E)
Time: 17:45:18
(UTC+08:00)

deb Explorer IX - Pass Details

Date: 02 October 2022
Orbit: 533 x 1057 km, 38.8° (Epoch: 30 November)

Event Time Altitude Azimuth Distance (km) Brightness Sun altitude
Rises 16:01:11 0° 341° (NNW) 3,766 ? 27.4°
Reaches altitude 10° 16:04:49 10° 358° (N) 2,760 ? 26.7°
Maximum altitude 16:09:13 19° 39° (NE) 2,112 ? 25.8°
Drops below altitude 10° 16:13:20 10° 81° (E) 2,558 ? 24.9°
Sets 16:16:32 0° 98° (E) 3,398 ? 24.3°
